STARLINK-35157, 65814

Orbit data source: Space-Track

STARLINK-35157, 65814 is a payload satellite owned by SpaceX/Seattle (US) in SSO that was launched on Fri, 26 Sep 2025 UTC via an FALCON 9 launch vehicle from the Air Force Western Test Range (AFWTR). Payload-class satellites include a variety of spacecraft equipped with specific instruments for various scientific and technological missions. These include communications satellites like Starlink; space stations such as the ISS; scientific satellites like the Hubble; Earth observation satellites from companies like Planet Labs, Umbra, and HawkEye 360; GPS; miniature CubeSats for education and research; and military/defense satellites.

Loading next visibility...
Identifier
65814, 2025-218Z
Orbit
SSO
Country
Flag of USUS
Related business
Manufacturer
SpaceX/Seattle
Mission
Operational Commercial Communications
Bus & Motor
STARLINK V2MO, Unknown motor
Mass
575 kg wet, ~530 kg dry
Launch date (UTC)
2025-09-26 (5 months ago)
Launch vehicle
FALCON 9
Launch site
Air Force Western Test Range (AFWTR)
Object type
Payload
Rocket body
Debris
Shape & HBR
Box + 2 Pan, 17.7 m
Radar Cross Section
36.964 m²

Expand to show TLE details & history
Last TLE update: 9 hours ago

TLE from 9 hours ago
0 STARLINK-35157
1 65814U 25218Z   26062.50013755  .00005269  00000-0  36905-3 0  9992
2 65814  97.6019 286.9363 0001968  80.4735 279.6714 15.05655077 24043
Epoch: 2026-03-03T12:00Z
TLE epoch observation values (Epoch: 2026-03-03T12:00:11.884Z)
Latitude
-0.00003°
Longitude
-54.39152°
Altitude
552.332 km
Speed
7.586 km/s
True Right ascension
19h 07m 44s
True Declination
0° 00' 00"
Sunlit
Object was in daylight at epoch
Visualization orbit readout
Latitude
Unknown
Longitude
Unknown
Altitude
Unknown
Speed
Unknown
Apparent Right ascension
Unknown
Apparent Declination
Unknown
Sunlit
N/A
Visualization observer readout
Local Sidereal Time
00:36:11
Azimuth
Unknown
Elevation
Unknown
Doppler factor
Unknown
Orbital elements
Apogee altitude
547.852 km
Perigee altitude
545.126 km
Semi-major axis
6,924.626 km
Eccentricity
0.0002
Inclination
97.6019°
RAAN
286.9363°
Arg. of periapsis
80.4735°
True anomaly
279.64917°
Mean anomaly
279.6714°
Eccentric anomaly
279.66028°
Mean motion
3.76659 °/min
Orbital period
95.58 mins
BSTAR
0.00036905
Loading maneuver chart data...
Computing Atmospheric mass density...
Loading historical data...
Loading historical data...
Loading historical data...
Loading historical data...
Loading historical data...
Loading historical data...
Loading historical data...

Documentation

Showing up to 5 results
|